Volver al catálogo

STARLINK-36034

ActivoComunicacionesVLEO
NORAD 66609·PAYLOAD·🇺🇸 United States

Lanzado Nov 22, 2025 desde Cape Canaveral Space Force Station

Loading…

Próximos Pases (próximas 24 horas)

TLE

ActualizadoSource: CelesTrak SupGP

Época: Sep 15, 2026, 03:47 UTC

1 66609C 25270X   26258.15812500 -.00027802  00000+0 -10068-2 0  2583
2 66609  43.0044  66.5389 0001790 268.8588 254.5302 15.27598208    12

Sigue STARLINK-36034 en tiempo real con AllMySat

Download on the App Store